If you wish to contribute or participate in the discussions about articles you are invited to join SKYbrary as a registered user

 Actions

Lord Howe Island Airport

From SKYbrary Wiki

YLHI
Airport
ICAO: YLHI – IATA: LDH
Summary
Name Lord Howe Island Airport
Region Asia and Pacific
Territory Australia AU.gif
Location Lord Howe Island, New South Wales
Serving Lord Howe Island
Elevation 1.524 m
5 ft
5 ft1.524 m
Type small airport
Coordinates 31° 32' 17.88" S, 159° 4' 37.20" E
Runways
Designator Length Width Surface ROPS
10/28 886 m2,906.824 ft
0 m0 ft
B yes/yes


METAR
Observation YLHI 150743Z AUTO 01007KT 320V040 7000 SHRA BKN014 BKN059 OVC070 17/17 Q1012
Station Lord Howe Island Airport
Date/Time 15 August 2020 07:43:00
Wind direction 10°
Wind speed 07 kts
Lowest cloud amount broken clouds
Temperature 17°C
Dew point 17°C
Humidity 100%
QNH 1012 hPa
Weather condition n/a